Location: ??????
(41.3164°N, 22.6615°E)
Time: 04:40:59
(UTC+00:00)

CANX-2 - Pass Details

Date: 14 August 2022
Orbit: 591 x 608 km, 97.7° (Epoch: 03 October)

Event Time Altitude Azimuth Distance (km) Brightness Sun altitude
Rises 02:00:16 0° 16° (NNE) 2,851 ? -16.8°
Reaches altitude 10° 02:02:28 10° 20° (NNE) 1,947 ? -16.4°
Maximum altitude 02:06:39 60° 101° (E) 689 ? -15.8°
Enters shadow 02:10:41 11° 181° (S) 1,885 ? -15.2°
